DG8SBT-13 Weather Reports


time (UTC)temp
C
wind
direction
speed
KPH
gust
KPH
rain 1hr
cm
rain 24hr
cm
rain mn
cm
humidity
%
barometer
mb
20260506155115 23 0 0.0 0.0 0.00 0.00 0.00 40 1008.7
20260506152125 23 0 0.0 0.0 0.00 0.00 0.00 41 1008.6
20260506145136 24 0 0.0 0.0 0.00 0.00 0.00 42 1008.6
20260506142144 24 0 0.0 0.0 0.00 0.00 0.00 40 1008.2
20260506135155 25 0 0.0 0.0 0.00 0.00 0.00 36 1007.5
20260506132204 25 0 0.0 0.0 0.00 0.00 0.00 35 1007.1
20260506125212 25 0 0.0 0.0 0.00 0.00 0.00 35 1007.0
20260506122222 25 0 0.0 0.0 0.00 0.00 0.00 35 1007.1
20260506115234 25 0 0.0 0.0 0.00 0.00 0.00 36 1007.4
20260506112243 25 0 0.0 0.0 0.00 0.00 0.00 35 1007.4
20260506105252 25 0 0.0 0.0 0.00 0.00 0.00 36 1007.8
20260506102300 25 0 0.0 0.0 0.00 0.00 0.00 37 1008.1
20260506095308 25 0 0.0 0.0 0.00 0.00 0.00 38 1008.2
20260506092316 24 0 0.0 0.0 0.00 0.00 0.00 38 1008.3
20260506085323 23 0 0.0 0.0 0.00 0.00 0.00 39 1008.3
20260506082331 23 0 0.0 0.0 0.00 0.00 0.00 40 1008.3
20260506072349 23 0 0.0 0.0 0.00 0.00 0.00 41 1008.5
20260506062408 22 0 0.0 0.0 0.00 0.00 0.00 40 1008.4
20260506042443 22 0 0.0 0.0 0.00 0.00 0.00 40 1008.6
20260506035452 22 0 0.0 0.0 0.00 0.00 0.00 39 1008.8
20260506032501 22 0 0.0 0.0 0.00 0.00 0.00 38 1009.0
20260506025512 22 0 0.0 0.0 0.00 0.00 0.00 39 1008.8
20260506022522 22 0 0.0 0.0 0.00 0.00 0.00 39 1009.2
20260506012543 22 0 0.0 0.0 0.00 0.00 0.00 39 1009.4
20260506005553 22 0 0.0 0.0 0.00 0.00 0.00 39 1009.2
20260506002602 22 0 0.0 0.0 0.00 0.00 0.00 38 1009.6
20260505235612 23 0 0.0 0.0 0.00 0.00 0.00 39 1009.9
20260505232623 23 0 0.0 0.0 0.00 0.00 0.00 39 1010.1
20260505225633 23 0 0.0 0.0 0.00 0.00 0.00 39 1010.0
20260505222642 23 0 0.0 0.0 0.00 0.00 0.00 39 1010.0
20260505215652 23 0 0.0 0.0 0.00 0.00 0.00 39 1009.9
20260505212701 23 0 0.0 0.0 0.00 0.00 0.00 39 1010.2
20260505205712 23 0 0.0 0.0 0.00 0.00 0.00 39 1010.0
20260505202723 23 0 0.0 0.0 0.00 0.00 0.00 39 1009.8
20260505195733 24 0 0.0 0.0 0.00 0.00 0.00 39 1009.4
20260505192744 24 0 0.0 0.0 0.00 0.00 0.00 39 1009.2
20260505185755 25 0 0.0 0.0 0.00 0.00 0.00 38 1009.1
20260505182802 25 0 0.0 0.0 0.00 0.00 0.00 37 1009.2
20260505175812 25 0 0.0 0.0 0.00 0.00 0.00 38 1009.0
20260505172822 25 0 0.0 0.0 0.00 0.00 0.00 42 1009.3
20260505165831 26 0 0.0 0.0 0.00 0.00 0.00 39 1009.0
20260505162840 26 0 0.0 0.0 0.00 0.00 0.00 40 1008.9